, AK

(GMT )
Shemya

Weather History for PASY - February, 2014

Change the Weather History Date:

Saturday, February 8, 2014

  Actual Average Record
Temperature  
Mean Temperature 35 °F -  
Max Temperature 37 °F 34 °F 40 °F (1959)
Min Temperature 33 °F 30 °F 20 °F (1952)
Degree Days  
Heating Degree Days 30    
Moisture  
Dew Point 33 °F    
Average Humidity 94    
Maximum Humidity 100    
Minimum Humidity 80    
Precipitation  
Precipitation 0.00 in - - ()
Sea Level Pressure  
Sea Level Pressure 30.50 in    
Wind  
Wind Speed 18 mph (East)    
Max Wind Speed 28 mph    
Max Gust Speed 31 mph    
Visibility 8 miles    
Events      
Averages and records for this station are not official NWS values.
T = Trace of Precipitation, MM = Missing Value Source: NWS Daily Summary

Daily Weather History Graph

Daily Weather History Graph

Search for Another Location

Airport or City:

Trip Planner

Search our weather history database for the weather conditions in past years. The results will help you decide how hot, cold, wet, or windy it might be!

Date:

Astronomy

Feb. 07, 2014 Rise Set
Actual Time 9:54 AM HST 7:21 PM HST
Civil Twilight 9:18 AM HST 7:57 PM HST
Nautical Twilight 8:37 AM HST 8:38 PM HST
Astronomical Twilight 7:57 AM HST 9:18 PM HST
Moon 2:15 PM HST (2/8) 5:32 AM HST (2/8)
Length of Visible Light 10h 39m
Length of Day
9h 26m
Waxing Gibbous, 70% of the Moon is Illuminated
Feb 8
Waxing Gibbous
Feb 14
Full
Feb 22
Last Quarter
Feb 28
New
Mar 8
First Quarter

Hourly Weather History & Observations

Time (HST) Temp. Windchill Dew Point Humidity Pressure Visibility Wind Dir Wind Speed Gust Speed Precip Events Conditions
12:53 AM 33.8 °F 23.5 °F 33.8 °F 100% 30.60 in 2.5 mi East 16.1 mph - N/A   Overcast
12:56 AM 34.0 °F 23.8 °F 34.0 °F 100% 30.61 in 2.5 mi East 16.1 mph - N/A   Overcast
1:06 AM 33.8 °F 23.5 °F 33.8 °F 100% 30.60 in 5.0 mi East 16.1 mph - N/A   Overcast
1:20 AM 33.8 °F 22.8 °F 33.8 °F 100% 30.60 in 2.5 mi East 18.4 mph - N/A   Overcast
1:43 AM 33.8 °F 24.3 °F 33.8 °F 100% 30.60 in 5.0 mi East 13.8 mph - N/A   Overcast
1:56 AM 34.0 °F 24.2 °F 34.0 °F 100% 30.60 in 3.0 mi East 15.0 mph - N/A   Overcast
2:56 AM 34.0 °F 22.7 °F 34.0 °F 100% 30.58 in 10.0 mi East 19.6 mph - N/A   Overcast
3:08 AM 33.8 °F 22.8 °F 33.8 °F 100% 30.58 in 6.2 mi East 18.4 mph - N/A   Overcast
3:41 AM 33.8 °F 22.5 °F 33.8 °F 100% 30.57 in 5.0 mi East 19.6 mph - N/A   Overcast
3:56 AM 34.0 °F 23.0 °F 34.0 °F 100% 30.57 in 6.0 mi East 18.4 mph - N/A   Overcast
4:18 AM 33.8 °F 22.5 °F 33.8 °F 100% 30.56 in 1.8 mi East 19.6 mph - N/A   Overcast
4:33 AM 33.8 °F 23.2 °F 33.8 °F 100% 30.56 in 2.5 mi East 17.3 mph - N/A   Overcast
4:40 AM 33.8 °F 22.2 °F 33.8 °F 100% 30.56 in 4.0 mi East 20.7 mph - N/A   Overcast
4:56 AM 34.0 °F 23.0 °F 34.0 °F 100% 30.56 in 10.0 mi East 18.4 mph - N/A   Overcast
5:17 AM 33.8 °F 23.2 °F 33.8 °F 100% 30.55 in 10.0 mi East 17.3 mph - N/A   Overcast
5:42 AM 33.8 °F 23.5 °F 33.8 °F 100% 30.53 in 5.0 mi East 16.1 mph - N/A   Overcast
5:56 AM 34.0 °F 24.2 °F 33.1 °F 96% 30.53 in 4.0 mi ENE 15.0 mph - N/A   Overcast
6:56 AM 33.1 °F 23.0 °F 33.1 °F 100% 30.53 in 5.0 mi ENE 15.0 mph - N/A   Mostly Cloudy
7:30 AM 33.8 °F 24.3 °F 33.8 °F 100% 30.51 in 10.0 mi ENE 13.8 mph - N/A   Scattered Clouds
7:56 AM 34.0 °F 24.2 °F 34.0 °F 100% 30.51 in 10.0 mi ENE 15.0 mph - N/A   Clear
8:53 AM 35.6 °F 26.2 °F 33.8 °F 93% 30.51 in 10.0 mi ENE 15.0 mph - N/A   Partly Cloudy
8:56 AM 35.1 °F 24.8 °F 34.0 °F 96% 30.52 in 10.0 mi ENE 17.3 mph - N/A   Partly Cloudy
9:41 AM 35.6 °F 25.2 °F 33.8 °F 93% 30.52 in 10.0 mi East 18.4 mph - N/A   Mostly Cloudy
9:53 AM 35.6 °F 25.2 °F 33.8 °F 93% 30.52 in 10.0 mi ENE 18.4 mph - N/A   Overcast
9:56 AM 35.1 °F 24.1 °F 33.1 °F 92% 30.52 in 10.0 mi East 19.6 mph - N/A   Overcast
10:56 AM 35.1 °F 23.8 °F 30.9 °F 85% 30.51 in 10.0 mi East 20.7 mph - N/A   Mostly Cloudy
11:56 AM 35.1 °F 24.1 °F 30.9 °F 85% 30.50 in 10.0 mi East 19.6 mph - N/A   Overcast
12:56 PM 36.0 °F 24.4 °F 32.0 °F 86% 30.48 in 10.0 mi East 23.0 mph - N/A   Overcast
1:12 PM 37.4 °F 27.5 °F 32.0 °F 81% 30.47 in 10.0 mi East 18.4 mph 25.3 mph N/A   Overcast
1:56 PM 37.0 °F 26.2 °F 33.1 °F 86% 30.46 in 10.0 mi East 21.9 mph - N/A   Overcast
2:56 PM 37.9 °F 27.3 °F 33.1 °F 83% 30.45 in 10.0 mi East 21.9 mph - N/A   Overcast
3:56 PM 37.0 °F 25.6 °F 33.1 °F 86% 30.42 in 10.0 mi East 24.2 mph 29.9 mph N/A   Overcast
4:56 PM 37.0 °F 26.2 °F 33.1 °F 86% 30.40 in 10.0 mi East 21.9 mph - N/A   Overcast
5:56 PM 36.0 °F 23.9 °F 32.0 °F 86% 30.41 in 10.0 mi ENE 25.3 mph - N/A   Overcast
6:56 PM 36.0 °F 24.4 °F 32.0 °F 86% 30.41 in 10.0 mi East 23.0 mph - N/A   Overcast
7:56 PM 36.0 °F 24.7 °F 33.1 °F 89% 30.40 in 10.0 mi East 21.9 mph 27.6 mph N/A   Overcast
8:56 PM 36.0 °F 24.4 °F 33.1 °F 89% 30.40 in 10.0 mi East 23.0 mph - N/A   Overcast
9:56 PM 36.0 °F 24.4 °F 33.1 °F 89% 30.40 in 10.0 mi East 23.0 mph - N/A   Overcast
10:46 PM 35.6 °F 23.2 °F 33.8 °F 93% 30.39 in 10.0 mi East 26.5 mph 31.1 mph N/A   Overcast
10:56 PM 36.0 °F 23.7 °F 33.1 °F 89% 30.40 in 10.0 mi East 26.5 mph - N/A   Overcast
11:31 PM 35.6 °F 24.0 °F 33.8 °F 93% 30.40 in 10.0 mi East 23.0 mph - N/A   Overcast
11:56 PM 36.0 °F 23.5 °F 33.1 °F 89% 30.40 in 10.0 mi East 27.6 mph - N/A   Overcast